Погода в Панкратово

Россия / Вологодская область     60°46′51″N   37°57′59″E
темп.,
°C
ветер,
м/с
пор.,
м/с
влажн.,
%
обл.,
%
осадки,
мм/ч
давл.,
гПа
погр.,
м
8 марта, пн
пн800:00−10св51193100 0.8 994680
03:00−12св51192100 1.0 997634
06:00−13ссв51191100 0.2 999614
09:00−15ссв51192100 0.2 1002472
12:00−13ссв499191 0.0 1006463
15:00−12с478882 0.0 1008672
18:00−16с3893100 0.1 1010407
21:00−20с3897100 0.1 1013252
9 марта, вт
вт900:00−24с249987 0.0 101586
03:00−27с249856 0.0 101780
06:00−29с25980 0.0 101990
09:00−27ссв36950 0.0 1021247
12:00−22ссв259340 0.0 1022371
15:00−19ссв368821 0.0 1023520
18:00−22с229317 0.0 102420
21:00−25с23968 0.0 102736
10 марта, ср
ср1000:00−25сз229317 0.0 102720
03:00−25зсз269219 0.0 102892
06:00−24зсз399631 0.0 1028245
09:00−21сз379757 0.0 1028252
12:00−15сз359599 0.0 1028338
15:00−12сз369299 0.1 1028454
18:00−14сз3796100 0.1 1028213
21:00−19сз269892 0.1 1029100
11 марта, чт
чт1100:00−19сз23961 0.0 103037
03:00−20сз22911 0.0 103020
06:00−20зсз22880 0.0 103020
09:00−17з13890 0.0 103187
12:00−11юз24870 0.0 1029275
15:00−8юз36870 0.0 1027481
18:00−12ююз379421 0.0 1025164
21:00−13ююз4129420 0.0 1024401
12 марта, пт
пт1200:00−13юз4129143 0.0 1023397
03:00−14юз499366 0.0 1022340
06:00−16ююз399678 0.0 1021245
09:00−14ююз499474 0.0 1020296
12:00−9ююз5109022 0.0 1019423
15:00−6ю5128511 0.0 1017665
18:00−8ю513860 0.0 1016605
21:00−11ю5159010 0.0 1015596